Location: Chlewo
(51.4929°N, 18.0436°E)
Time: 06:22:06
(UTC+00:00)

Daily predictions for brighter satellites

Satellite Brightness Start Highest point End
(mag) Time Altitude Azimuth Time Altitude Azimuth Time Altitude Azimuth
Cosmos 2360 Rocket 3.5 18:39:26 10° NNW 18:44:14 27° NE 18:49:02 10° E
ATLAS 3B R/B 4.1 18:42:11 10° SE 18:44:50 13° ESE 18:47:30 10° E
Meteor 2-20 4.5 18:39:37 10° N 18:45:49 79° ENE 18:51:57 10° SSE
Cosmos 676 Rocket 4.2 18:41:30 10° S 18:46:40 52° ESE 18:51:51 10° NNE
USA 234 3.7 18:43:46 10° E 18:50:11 60° N 18:56:36 10° WNW
Terra 3.8 18:50:28 10° E 18:53:05 15° NE 18:55:43 10° NNE
Cosmos 1934 Rocket 4.1 18:47:02 10° S 18:53:17 61° E 18:59:32 10° NNE
Cosmos 1980 Rocket 2.7 18:47:59 10° NW 18:53:37 62° WSW 18:59:09 10° SSE
Cosmos 468 Rocket 4.3 18:48:41 10° NNW 18:53:57 58° ENE 18:59:08 10° SE
Cosmos 1238 Rocket 3.5 18:52:21 10° SE 18:54:42 21° E 18:57:06 10° NE
USA 276 2.4 18:51:36 10° W 18:54:43 53° SSW 18:57:48 10° ESE
X-37B 2.1 18:52:57 10° WSW 18:55:31 23° S 18:58:06 10° SE
Cosmos 44 3.7 18:52:21 10° NW 18:57:08 56° NE 19:02:11 10° ESE
CZ-2C R/B 3.9 18:52:40 10° NNE 18:57:10 52° E 19:01:33 10° S
IGS 5A 4.4 18:53:32 10° SE 18:57:13 31° ENE 19:00:55 10° N
Lacrosse 5 2.1 18:52:30 10° WNW 18:57:33 69° SW 19:02:35 10° SE
Resurs 01 Rocket 1.6 18:58:34 10° SSE 19:02:59 73° ENE 19:07:26 10° N
Cosmos 1833 Rocket 3.4 18:59:19 10° SW 19:04:52 61° NW 19:10:29 10° NNE
Cosmos 1697 Rocket 4.5 19:00:51 10° NW 19:05:39 30° WSW 19:10:27 10° SSW
GP-B 3.5 19:01:46 10° NNE 19:06:04 46° E 19:10:20 10° SSE
SPOT 3 Rocket 3.7 19:02:44 10° SSE 19:07:55 78° WSW 19:13:09 10° NNW
USA 238 DEB 3.7 19:01:47 10° SSW 19:08:17 62° SE 19:15:07 10° NE
USA 238 3.7 19:01:53 10° SSW 19:08:24 62° SE 19:15:13 10° NE
Cosmos 1867 3.6 19:04:53 10° SW 19:10:20 90° NE 19:15:51 10° NE
Cosmos 1933 Rocket 4.1 19:07:16 10° SSE 19:11:22 39° E 19:15:32 10° NNE
Cosmos 1666 Rocket 3.7 19:07:28 10° SSW 19:11:48 76° WNW 19:16:11 10° N
CENTAUR R/B 2.9 19:06:24 10° S 19:12:00 43° ESE 19:18:35 10° NE
DMSP B5D2-2 4.3 19:07:49 10° NNE 19:13:04 79° WNW 19:18:19 10° SSW
Cosmos 1954 Rocket 4.0 19:09:28 10° SSW 19:14:48 83° ESE 19:20:09 10° NNE
Meteor 1-20 Rocket 4.4 19:09:34 10° S 19:15:18 60° E 19:21:03 10° NNE
Spot 2 Rocket 3.8 19:11:05 10° SE 19:15:57 52° ENE 19:20:53 10° N
Cosmos 405 Rocket 3.0 19:16:04 10° S 19:19:37 45° E 19:23:15 10° NNE
Okean 1-7 3.5 19:17:35 10° N 19:21:43 42° ENE 19:25:00 15° SE
Cosmos 1515 4.2 19:18:11 10° N 19:21:52 42° ENE 19:24:41 15° SE
Cosmos 1741 Rocket 4.4 19:17:49 10° S 19:22:43 41° ESE 19:27:41 10° NE
Cosmos 1763 Rocket 3.6 19:23:02 10° NNW 19:28:25 90° WSW 19:33:12 13° SSE
Cosmos 2333 Rocket 3.7 19:23:37 10° NNW 19:28:29 27° NE 19:33:18 10° E
Cosmos 1437 Rocket 2.8 19:25:22 10° N 19:29:07 56° ENE 19:31:55 17° SSE
Cosmos 1570 Rocket 4.3 19:25:07 10° NNW 19:30:24 57° ENE 19:34:32 16° SE
Cosmos 1140 Rocket 4.5 19:26:16 10° SW 19:31:22 51° WNW 19:36:31 10° NNE
Cosmos 1703 Rocket 3.7 19:27:29 10° N 19:31:48 59° ENE 19:35:10 16° SSE
FALCON 9 DEB 3.3 19:28:54 10° W 19:32:24 74° N 19:35:55 10° ENE
H-2A R/B 3.6 19:29:40 10° NNE 19:33:44 53° E 19:37:48 10° S
OBJECT-B 2.8 19:31:50 10° SSW 19:34:41 27° W 19:37:34 10° NW
Cosmos 2084 Rocket 3.6 19:32:51 10° SSW 19:36:54 48° SE 19:41:03 10° NE
Cosmos 1633 Rocket 4.0 19:34:27 10° SSW 19:38:44 50° WNW 19:43:04 10° N
Cosmos 1184 Rocket 3.8 19:36:22 10° SSW 19:39:34 48° WNW 19:42:47 10° N
Landsat 7 3.8 19:36:27 14° SSE 19:40:33 80° ENE 19:45:21 10° NNW
Cosmos 921 Rocket 4.1 19:36:43 10° NW 19:40:39 39° WSW 19:44:32 10° S
SPOT 5 3.3 19:38:25 19° SE 19:41:07 39° ENE 19:45:18 10° N
Cosmos 2208 Rocket 4.2 19:36:36 10° NNW 19:41:50 59° ENE 19:45:27 19° SE
USA 245 4.5 19:37:21 11° SSE 19:43:32 86° ENE 19:49:24 10° NNW
MetOp-B 4.3 19:40:53 10° S 19:46:13 74° WSW 19:51:36 10° NNW
Meteor 1-19 Rocket 4.2 19:44:42 10° NNW 19:50:10 84° W 19:54:58 14° S
CZ-2C R/B 4.1 19:47:45 10° N 19:52:31 38° WNW 19:57:19 10° SW
Okean 1 3.7 19:48:43 10° NNW 19:52:45 65° W 19:56:09 14° S
Cosmos 1605 Rocket 4.1 19:47:29 10° SSW 19:53:36 80° W 19:59:43 10° N
ERBS 3.6 19:51:39 10° WNW 19:54:44 35° NNE 19:57:19 13° ENE
USA 267 3.6 19:49:42 10° ENE 19:55:48 39° SE 20:01:50 10° SSW
Cosmos 2100 Rocket 4.2 19:52:15 16° SSE 19:56:55 50° E 20:02:49 10° NNE
NOSS 3-2 (A) 3.7 19:52:35 10° SW 19:58:27 76° NW 20:05:17 10° NE
Meteor 2-4 Rocket 3.7 19:53:12 10° N 19:58:50 74° ENE 20:02:35 21° SSE
Cosmos 2219 Rocket 3.3 19:53:40 10° NNW 19:58:51 34° NE 20:02:41 16° ESE
Lacrosse 4 Rocket 2.9 20:01:23 19° E 20:01:23 19° E 20:03:43 10° ENE
Cosmos 2173 Rocket 4.2 19:56:36 18° SSE 20:01:01 50° E 20:06:52 10° NNE
Cosmos 540 Rocket 3.4 19:56:08 10° NNW 20:01:20 89° ENE 20:04:38 23° SSE
SL-16 R/B 2.6 19:56:41 10° NW 20:02:16 59° WSW 20:06:27 18° S
SL-4 R/B 1.7 20:01:13 10° W 20:05:10 86° N 20:07:24 23° E
Cosmos 2242 Rocket 4.3 20:01:03 10° NNW 20:05:20 51° W 20:09:08 13° SSW
BREEZE-M DEB (TANK) 2.8 20:02:44 10° W 20:05:45 71° S 20:14:44 10° E
SL-27 R/B 2.1 20:04:28 14° SSW 20:07:15 84° ESE 20:10:35 10° NNE
NOSS 3-2 (C) 3.4 20:03:12 10° SW 20:09:02 89° SE 20:15:51 10° NE
Cosmos 2322 4.1 20:06:43 10° NNW 20:12:16 52° NE 20:15:30 24° ESE
BREEZE-M DEB (TANK) 2.7 20:10:56 10° W 20:12:31 31° SW 20:12:31 31° SW
Cosmos 2082 Rocket 3.9 20:08:30 10° WSW 20:13:44 36° NW 20:18:58 10° NNE
Cosmos 1459 Rocket 4.1 20:09:17 18° SSE 20:13:57 62° E 20:20:14 10° NNE
Cosmos 1242 Rocket 3.7 20:12:51 10° N 20:16:07 30° ENE 20:16:53 27° E
Meteor 1-13 Rocket 4.2 20:12:27 10° N 20:17:58 67° ENE 20:20:56 28° SSE
SAR-Lupe-2 3.8 20:15:29 10° NNE 20:18:59 49° E 20:19:45 41° SE
ERS-1 Rocket 2.9 20:16:15 25° SSE 20:19:16 85° WSW 20:24:20 10° NNW
Cosmos 2322 Rocket 2.7 20:14:01 10° NW 20:19:33 54° WSW 20:23:14 21° S
Meteor 1-14 Rocket 4.5 20:14:30 10° SSW 20:20:24 79° WNW 20:26:26 10° N
Cosmos 2016 Rocket 4.3 20:17:44 25° SSE 20:21:15 50° E 20:27:22 10° NNE
Cosmos 1850 Rocket 4.4 20:20:29 10° SW 20:25:45 66° WNW 20:31:00 10° NNE
Cosmos 2221 Rocket 3.6 20:21:55 10° N 20:26:25 66° ENE 20:28:09 36° SSE
Cosmos 841 Rocket 3.9 20:21:46 10° NNW 20:26:54 58° WSW 20:29:56 24° S
Cosmos 1500 3.0 20:25:36 32° S 20:27:15 89° ESE 20:31:02 10° N
Cosmos 2333 4.4 20:21:27 10° NNW 20:27:15 64° NE 20:30:11 29° SE
SPOT 1/Viking Rocket 4.1 20:23:32 18° S 20:27:20 53° W 20:32:28 10° NNW
Cosmos 1536 3.5 20:27:22 34° ESE 20:27:46 35° E 20:31:24 10° NNE
Cosmos 2360 Rocket 2.2 20:23:11 10° NNW 20:28:53 78° WSW 20:31:48 30° SSE
Terra 1.8 20:27:56 33° SSE 20:30:06 80° ENE 20:34:54 10° NNW
Okean 3 3.4 20:26:06 10° N 20:30:26 87° ENE 20:32:07 37° SSE
USA 276 4.1 20:28:17 10° W 20:30:10 18° SW 20:30:10 18° SW
Cosmos 2237 4.4 20:27:21 10° NW 20:33:01 67° WSW 20:35:58 29° S
USA 234 3.2 20:29:00 25° SE 20:33:06 82° SSW 20:39:41 10° WNW
ATLAS 3B R/B 2.6 20:27:41 10° SSW 20:34:07 58° SE 20:40:38 10° NE
Cosmos 1666 2.8 20:37:36 50° ESE 20:38:01 53° E 20:41:42 10° NNE
COSMOS 2487 3.4 20:39:02 33° ENE 20:39:02 33° ENE 20:41:31 10° NE
Lacrosse 5 3.8 20:36:27 10° W 20:39:46 18° SW 20:41:50 14° SSW
Resurs 01 Rocket 4.2 20:37:18 10° SW 20:39:59 16° W 20:42:42 10° NW
Iridium 4 Rocket 2.8 20:38:44 40° S 20:40:12 82° E 20:44:23 10° N
CARTOSAT-1 4.2 20:40:31 27° SSW 20:42:35 50° W 20:46:49 10° NNW
Cosmos 1378 4.0 20:42:55 10° N 20:46:24 35° ENE 20:46:39 35° E
Cosmos 2233 Rocket 4.4 20:49:34 33° SE 20:51:49 46° E 20:57:48 10° NNE
Cosmos 2061 Rocket 3.9 20:50:45 29° S 20:54:09 80° E 21:00:23 10° NNE
COSMOS 2428 2.9 20:49:44 10° NNW 20:55:28 66° NE 20:57:48 36° SE
Cosmos 1802 Rocket 4.1 20:54:58 23° SSW 20:59:12 82° W 21:05:34 10° N
Cosmos 2237 Rocket 3.3 20:54:39 10° NNW 20:59:50 35° NE 21:02:46 22° E
Cosmos 1743 3.9 21:00:16 30° ENE 21:00:16 30° ENE 21:03:19 10° NNE
CENTAUR R/B 3.2 20:56:17 10° WSW 21:02:29 60° NW 21:09:54 10° NE
Cosmos 44 Rocket 3.3 20:57:43 10° NW 21:02:43 84° NE 21:04:15 46° SE
NOSS 0 Rocket 4.4 20:58:46 10° NNW 21:04:55 54° NE 21:07:51 30° ESE
Cosmos 1816 Rocket 4.5 21:00:01 10° NNW 21:06:18 82° W 21:09:03 36° S
Cosmos 1271 Rocket 2.9 21:05:32 10° N 21:09:17 56° ENE 21:09:24 56° E
FALCON 9 DEB 3.2 21:06:06 10° WNW 21:09:36 76° N 21:09:36 76° N
Cosmos 1674 Rocket 3.4 21:08:51 10° N 21:13:13 89° E 21:13:54 63° S
Cosmos 2333 Rocket 2.2 21:07:38 10° NNW 21:13:27 83° WSW 21:15:19 45° SSE
ATLAS 5 CENTAUR R/B 2.6 21:11:17 10° WNW 21:14:08 50° SW 21:14:58 44° S
SPOT 5 4.2 21:17:39 21° SW 21:19:22 27° W 21:23:12 10° NW
Geosat 4.2 21:18:02 42° ESE 21:19:35 63° NE 21:24:34 10° NNW
Cosmos 1066 Rocket 4.3 21:13:57 10° NNW 21:19:37 71° W 21:21:30 42° S
Cosmos 1486 Rocket 3.9 21:22:06 51° S 21:23:22 72° ESE 21:28:35 10° NNE
BREEZE-M DEB (TANK) 4.2 21:13:21 10° W 21:27:27 55° SSW 21:28:58 44° SSE
CRYOSAT 2 4.3 21:24:13 10° N 21:29:09 88° W 21:30:14 55° S
Cosmos 1733 Rocket 3.3 21:29:41 48° SW 21:30:42 65° WNW 21:35:07 10° N
ERBS 3.3 21:27:57 10° WNW 21:30:13 40° WNW 21:30:13 40° WNW
Cosmos 489 Rocket 4.5 21:28:26 10° NNW 21:34:45 73° WSW 21:36:44 45° S
Meteor 1-11 Rocket 4.3 21:31:46 25° SW 21:35:00 56° WNW 21:40:46 10° N
Tsikada Rocket 4.4 21:30:00 10° NNW 21:36:12 58° W 21:38:45 35° SSW
Cosmos 773 Rocket 4.4 21:31:15 10° NNW 21:36:18 53° ENE 21:37:33 43° ESE
Cosmos 968 Rocket 3.3 21:37:25 57° S 21:38:29 82° ESE 21:43:39 10° NNE
Lacrosse 4 Rocket 1.8 21:37:37 39° WSW 21:38:58 62° NW 21:43:07 10° NNE
USA 267 3.2 21:32:40 10° ENE 21:39:15 87° NNW 21:45:49 10° WSW
Cosmos 2227 Rocket 3.9 21:40:11 18° E 21:40:11 18° E 21:43:29 10° ENE
ALOS 2 3.0 21:39:37 49° E 21:40:00 51° ENE 21:44:16 10° N
Cosmos 2219 Rocket 2.4 21:37:33 10° NW 21:43:08 58° WSW 21:44:23 47° SSW
SL-4 R/B 3.3 21:41:01 10° W 21:42:58 27° W 21:42:58 27° W
Cosmos 1707 4.2 21:43:19 10° N 21:46:37 27° ENE 21:46:37 27° ENE
Cosmos 1242 Rocket 4.3 21:47:52 10° NW 21:50:53 24° W 21:50:53 24° W
EO 1 Del DPAF 3.8 21:50:14 10° NNE 21:53:13 48° NE 21:53:13 48° NE
Cosmos 1782 Rocket 3.8 21:58:07 56° ENE 21:58:07 56° ENE 22:02:06 10° NNE
Spot 4 4.0 21:58:19 57° SW 21:58:53 62° WSW 22:03:42 10° NNW
Cosmos 1607 4.4 21:53:45 10° NW 22:00:09 61° NE 22:03:21 30° ESE
Cosmos 1842 3.4 21:58:20 10° N 22:01:52 70° NNW 22:01:52 70° NNW
Cosmos 1378 Rocket 4.5 22:00:21 10° NNW 22:04:28 37° W 22:04:52 36° WSW
Cosmos 1908 Rocket 3.5 22:04:49 71° W 22:04:58 72° W 22:09:21 10° N
Terra 4.0 22:06:49 14° WSW 22:08:27 16° W 22:11:21 10° NW
Cosmos 2344 4.3 21:59:42 10° NW 22:08:47 85° NE 22:17:17 24° SE
Cosmos 2360 Rocket 4.2 22:08:55 10° WNW 22:11:56 15° W 22:13:33 13° WSW
SL-16 R/B 3.0 22:09:53 10° NNW 22:15:23 46° NE 22:17:41 31° ESE
USA 234 4.1 22:16:20 31° SW 22:16:44 32° SW 22:22:28 10° WNW
MOS 1-B Rocket 4.4 22:15:21 10° N 22:20:47 52° WNW 22:23:10 31° WSW
ATLAS 3B R/B 3.5 22:18:38 10° WSW 22:25:01 48° NNW 22:31:31 10° NE
Cosmos 1354 Rocket 4.1 22:23:58 54° SW 22:25:07 74° WNW 22:30:28 10° NNE
Cosmos 1975 Rocket 3.3 22:22:56 10° NNW 22:27:17 61° W 22:27:17 61° W
Cosmos 1300 Rocket 4.2 22:28:47 43° ENE 22:28:47 43° ENE 22:32:27 10° NNE
SL-24 DEB 4.1 22:24:42 10° N 22:29:30 85° W 22:29:43 81° SW
Cosmos 1544 4.2 22:30:40 41° NW 22:30:40 41° NW 22:33:44 10° N
Meteor 1-21 4.4 22:26:17 10° NNW 22:32:01 63° W 22:33:00 54° SW
Cosmos 2297 Rocket 2.5 22:32:12 49° ESE 22:32:24 50° ESE 22:37:51 10° NE
Thor Agena Rocket 4.0 22:28:49 10° N 22:33:48 55° WNW 22:35:03 44° WSW
Okean 2 4.5 22:31:02 10° NNW 22:34:30 35° W 22:34:30 35° W
Cosmos 1743 4.4 22:35:21 26° WNW 22:35:38 27° WNW 22:39:00 10° N
Nimbus 7 Rocket 4.3 22:29:50 10° NNE 22:35:45 85° WNW 22:37:09 55° SSW
In-Cosmos 22 4.2 22:30:23 10° N 22:35:56 67° ENE 22:36:51 57° SE
Cosmos 1975 3.4 22:36:14 51° WNW 22:36:14 51° WNW 22:39:59 10° N
Meteor 2-9 Rocket 4.2 22:35:06 57° SW 22:36:15 77° WNW 22:42:05 10° N
Cosmos 1980 3.8 22:30:51 10° NW 22:36:26 58° WSW 22:36:58 56° SW
COSMOS 2428 4.0 22:34:38 10° NW 22:39:19 26° WSW 22:39:48 26° WSW
Cosmos 1777 Rocket 4.0 22:39:10 64° SE 22:39:25 65° ESE 22:44:41 10° NNE
Timation 2 Rocket 3.8 22:39:51 57° SSW 22:41:13 85° ESE 22:47:15 10° NNE
Cosmos 1025 Rocket 3.1 22:38:32 10° N 22:42:31 74° NNE 22:42:31 74° NNE
Cosmos 2237 Rocket 2.3 22:38:40 10° NW 22:44:11 54° WSW 22:44:34 53° SW
SJ 16-02 3.0 22:47:38 23° E 22:47:38 23° E 22:50:32 10° NE
Cosmos 2219 3.1 22:46:32 66° SSE 22:47:05 71° ESE 22:52:42 10° NNE
Cosmos 1464 Rocket 4.0 22:46:12 51° SW 22:47:47 72° WNW 22:53:59 10° N
Okean 1 Rocket 4.4 22:50:07 28° E 22:50:07 28° E 22:53:43 10° NNE
Okean 2 Rocket 3.1 22:53:44 81° NE 22:53:44 81° NE 22:58:07 10° NNE
Nadezhda 4 Rocket 4.0 22:47:21 10° NNW 22:53:37 71° W 22:54:56 55° SSW
CENTAUR R/B 4.4 22:48:30 10° WNW 22:54:39 34° N 23:01:46 10° NE
Cosmos 2333 Rocket 4.1 22:53:25 10° WNW 22:56:50 16° W 22:57:19 16° WSW
Cosmos 1674 3.6 22:53:59 10° N 22:57:04 43° NE 22:57:04 43° NE
CZ-2D R/B 4.2 23:00:08 10° NE 23:03:18 15° E 23:05:05 13° ESE
Cosmos 923 Rocket 3.9 23:01:35 10° NNW 23:06:57 84° ENE 23:07:42 67° SE
Sich 1 Rocket 4.3 23:15:13 41° WNW 23:15:21 41° WNW 23:19:32 10° N
Cosmos 1092 Rocket 3.9 23:09:11 10° NNW 23:15:25 77° W 23:16:44 57° SSW
ALOS 2 4.3 23:17:00 21° W 23:17:00 21° W 23:20:02 10° NW
NOSS 3-1 (C) 4.1 23:16:43 35° ESE 23:16:57 35° ESE 23:22:36 10° NE
Helios 1A 3.8 23:18:09 41° WNW 23:18:09 41° WNW 23:21:37 10° NNW
Lacrosse 4 Rocket 4.2 23:15:52 10° WNW 23:18:28 16° NNW 23:21:03 10° N
Cosmos 1626 3.4 23:15:18 10° N 23:18:35 34° ENE 23:18:35 34° ENE
Cosmos 2034 Rocket 4.3 23:19:27 44° SW 23:21:12 59° WNW 23:27:29 10° N
USA 267 3.8 23:15:41 10° ENE 23:22:04 57° N 23:28:26 10° W
Cosmos 1707 4.3 23:19:07 10° NNW 23:21:46 28° WNW 23:21:46 28° WNW
Cosmos 2227 Rocket 2.1 23:21:59 61° SSW 23:23:01 88° WNW 23:28:45 10° NNE
Cosmos 1733 4.4 23:24:08 34° ENE 23:24:08 34° ENE 23:27:14 10° NNE
Cosmos 1461 3.5 23:24:34 52° E 23:24:34 52° E 23:28:31 10° NE
Cosmos 2219 Rocket 4.5 23:25:29 10° W 23:25:51 10° W 23:26:05 10° W
Cosmos 1766 4.2 23:26:28 41° ENE 23:26:28 41° ENE 23:29:41 10° NNE
Cosmos 2151 Rocket 3.7 23:26:48 65° WNW 23:26:48 65° WNW 23:31:08 10° N
Cosmos 1536 Rocket 4.2 23:25:57 10° NNW 23:29:39 43° WNW 23:29:39 43° WNW
Resurs 1-4 Rocket 3.6 23:29:41 10° NE 23:34:01 25° E 23:35:32 22° ESE
Meteor 2-5 Rocket 3.6 23:30:01 10° NNW 23:35:40 83° E 23:36:52 56° SSE
Landsat 4 4.1 23:32:35 10° N 23:35:51 61° NNW 23:35:51 61° NNW
Cosmos 1805 3.4 23:45:52 70° NNE 23:45:52 70° NNE 23:49:21 10° NNE
Cosmos 158 Rocket 4.0 23:40:49 10° NNW 23:46:09 63° WSW 23:46:39 60° SW
Cosmos 2082 3.6 23:48:47 59° SSW 23:49:56 89° ESE 23:55:36 10° NNE
Spot 1 4.2 23:49:42 57° E 23:50:04 60° ENE 23:54:07 10° N
Cosmos 1937 Rocket 4.2 23:49:29 39° SE 23:50:26 42° ESE 23:55:26 10° NE
Cosmos 990 Rocket 4.1 23:50:28 54° SE 23:51:11 60° ESE 23:56:17 10° NNE
DELTA 2 DEB (DPAF) 4.5 23:52:22 49° ESE 23:53:16 60° ENE 23:57:40 10° N
Helios 1B rocket 2.4 23:50:15 10° NNE 23:54:18 77° WNW 23:54:18 77° WNW
PSLV R/B 4.0 23:49:51 10° N 23:54:29 57° WNW 23:55:06 52° WSW
